Location: Costa Valle Imagna
(45.8000°N, 9.5000°E)
Time: 09:36:59
(UTC+00:00)

Meteor 2-10 Rocket - Pass Details

Date: 17 February 2020
Orbit: 734 x 884 km, 81.2° (Epoch: 09 April)

Event Time Altitude Azimuth Distance (km) Brightness Sun altitude
Exits shadow 04:27:15 43° 258° (WSW) 1,113 3.8 -20.7°
Maximum altitude 04:28:07 46° 286° (WNW) 1,050 3.8 -20.5°
Drops below altitude 10° 04:33:09 10° 360° (N) 2,320 6.0 -19.6°
Sets 04:35:34 0° 6° (N) 3,232 6.8 -19.2°
